PDT,Max TemperatureF,Mean TemperatureF,Min TemperatureF,Max Dew PointF,MeanDew PointF,Min DewpointF,Max Humidity, Mean Humidity, Min Humidity, Max Sea Level PressureIn, Mean Sea Level PressureIn, Min Sea Level PressureIn, Max VisibilityMiles, Mean VisibilityMiles, Min VisibilityMiles, Max Wind SpeedMPH, Mean Wind SpeedMPH, Max Gust SpeedMPH,PrecipitationIn, CloudCover, Events, WindDirDegrees
2013-5-1,48,30,27,25,23,22,85,71,38,30.58,30.51,30.45,10,10,10,5,3,,0.00,0,,233
2013-5-2,57,50,42,32,26,22,67,42,27,30.52,30.45,30.34,10,10,10,8,4,,0.00,0,,352
2013-5-3,46,44,44,31,30,29,55,54,54,30.36,30.36,30.36,10,10,10,6,5,,0.00,0,,210
2013-5-4,,,,,,,,,,,,,,,,,,,,,,
2013-5-5,46,,46,29,29,29,51,51,51,30.05,30.05,30.05,10,10,10,4,4,,0.00,0,,-1
2013-5-6,62,55,55,32,28,25,32,31,30,29.90,29.86,29.83,10,10,10,9,3,20,0.00,0,,290
2013-5-7,60,56,53,45,43,39,74,63,57,30.04,29.98,29.93,10,10,10,9,8,,0.00,0,,247
2013-5-8,57,43,43,44,43,42,97,78,60,30.12,30.12,30.12,10,5,0,9,8,,0.00,0,Fog,245
2013-5-9,66,66,52,46,43,40,80,58,37,30.20,30.19,30.17,10,10,10,7,6,,0.00,0,,240
2013-5-10,57,,57,35,35,35,44,44,44,30.22,30.22,30.22,10,10,10,9,9,,0.00,0,,240
2013-5-11,55,,55,43,43,43,62,62,62,30.17,30.17,30.17,10,10,10,4,4,,0.00,8,,220
2013-5-12,50,49,48,48,47,46,100,95,89,30.18,30.14,30.08,10,2,0,6,3,,0.00,8,Fog-Rain,285
2013-5-13,48,40,34,45,40,30,100,90,80,30.14,30.04,30.00,10,5,0,15,4,36,0.13,8,Fog-Rain,271
2013-5-14,45,36,32,30,30,26,93,86,48,30.22,30.17,30.15,10,5,0,9,6,,0.00,7,Fog,272
2013-5-15,46,42,37,40,34,29,89,72,60,30.09,30.07,30.04,10,8,4,7,5,,0.00,4,Rain,237
2013-5-16,51,48,44,43,40,37,93,79,59,29.97,29.96,29.93,10,6,0,6,2,,0.00,5,Fog,225
2013-5-17,41,40,39,40,39,38,100,96,93,29.98,29.97,29.96,1,0,0,7,5,,0.00,8,Fog,-1
2013-5-18,39,37,35,36,35,34,100,92,87,30.12,30.08,30.04,9,4,0,7,5,,0.00,8,Fog-Rain,290
2013-5-19,,,,,,,,,,,,,,,,,,,,,,
2013-5-20,39,,39,37,37,37,93,93,93,30.29,30.29,30.29,0,0,0,4,4,,0.00,,Fog,250
2013-5-21,,,,,,,,,,,,,,,,,,,,,,
2013-5-22,32,28,28,30,29,27,93,92,92,29.85,29.84,29.82,0,0,0,8,7,,0.08,8,Fog-Snow,270
2013-5-23,39,33,33,37,34,31,93,92,92,29.94,29.94,29.94,10,5,0,6,4,,0.01,8,Fog,-1
2013-5-24,37,34,34,36,33,32,93,92,92,29.99,29.97,29.94,10,4,1,5,3,,0.00,7,,240
2013-5-25,41,,41,37,37,37,86,86,86,29.99,29.99,29.99,10,10,10,0,0,,0.00,0,,-1
2013-5-26,46,44,42,43,40,39,93,88,87,30.01,30.00,29.99,5,2,0,5,4,,0.00,8,Fog-Rain,260
2013-5-27,41,41,41,39,39,39,93,93,93,29.96,29.95,29.95,8,4,1,4,1,,0.00,8,,240
2013-5-28,44,42,39,43,40,37,93,88,81,29.88,29.86,29.84,10,8,3,6,3,,0.00,8,Rain,-1
2013-5-29,39,38,37,37,37,36,93,92,89,29.91,29.82,29.73,10,6,1,10,4,22,0.11,5,Rain,270
2013-5-30,37,35,33,35,34,32,93,93,93,30.07,30.00,29.96,10,3,0,10,7,25,0.04,8,Fog-Rain,280
2013-5-31,,,,,,,,,,,,,,,,,,,,,,